Caldwell, NJ

7:58 AM EST on December 16, 2019 (GMT -0500)
Essex County

Weather History for KCDW - September, 2019

Change the Weather History Date:

Tuesday, September 17, 2019

  Actual Average Record
Temperature  
Mean Temperature 68 °F -  
Max Temperature 79 °F 74 °F 92 °F (1991)
Min Temperature 57 °F 51 °F 32 °F (1984)
Cooling Degree Days 2    
Growing Degree Days 18 (Base 50)    
Moisture  
Dew Point 49 °F    
Average Humidity 57    
Maximum Humidity 93    
Minimum Humidity 25    
Precipitation  
Precipitation 0.00 in - - ()
Sea Level Pressure  
Sea Level Pressure 30.15 in    
Wind  
Wind Speed 3 mph ()    
Max Wind Speed 8 mph    
Max Gust Speed -    
Visibility 10.0 miles    
Events      
Averages and records for this station are not official NWS values.
T = Trace of Precipitation, MM = Missing Value Source: Averaged Metar Reports

Daily Weather History Graph

Daily Weather History Graph

Search for Another Location

Airport or City:

Astronomy

Sep. 17, 2019 Rise Set
Actual Time 6:39 AM EDT 7:03 PM EDT
Civil Twilight 6:11 AM EDT 7:30 PM EDT
Nautical Twilight 5:39 AM EDT 8:02 PM EDT
Astronomical Twilight 5:06 AM EDT 8:35 PM EDT
Moon 9:03 PM EDT (9/17) 9:42 AM EDT (9/17)
Length of Visible Light 13h 18m
Length of Day
12h 23m
Waning Gibbous, 89% of the Moon is Illuminated
Sep 17
Waning Gibbous
Sep 21
Last Quarter
Sep 28
New
Oct 5
First Quarter
Oct 13
Full

Hourly Weather History & Observations

Time (EDT) Temp. Dew Point Humidity Pressure Visibility Wind Dir Wind Speed Gust Speed Precip Events Conditions
12:53 AM 66.0 °F 63.0 °F 90% 30.10 in 10.0 mi Variable 3.5 mph - N/A   Scattered Clouds
1:53 AM 64.0 °F 61.0 °F 90% 30.11 in 10.0 mi NE 3.5 mph - N/A   Scattered Clouds
2:53 AM 62.1 °F 60.1 °F 93% 30.12 in 10.0 mi Calm Calm - N/A   Partly Cloudy
3:53 AM 62.1 °F 59.0 °F 90% 30.11 in 10.0 mi NE 3.5 mph - N/A   Clear
4:53 AM 61.0 °F 55.9 °F 83% 30.12 in 10.0 mi NNE 3.5 mph - N/A   Clear
5:53 AM 59.0 °F 55.0 °F 87% 30.14 in 10.0 mi NE 3.5 mph - N/A   Clear
6:53 AM 57.9 °F 54.0 °F 87% 30.16 in 10.0 mi Calm Calm - N/A   Clear
7:53 AM 61.0 °F 53.1 °F 75% 30.17 in 10.0 mi Variable 3.5 mph - N/A   Clear
8:53 AM 64.9 °F 52.0 °F 63% 30.18 in 10.0 mi NE 3.5 mph - N/A   Clear
9:53 AM 69.1 °F 52.0 °F 54% 30.19 in 10.0 mi NW 5.8 mph - N/A   Clear
10:53 AM 72.0 °F 46.9 °F 41% 30.19 in 10.0 mi NE 5.8 mph - N/A   Clear
11:53 AM 73.9 °F 44.1 °F 34% 30.17 in 10.0 mi NE 8.1 mph - N/A   Clear
12:53 PM 75.9 °F 46.0 °F 35% 30.17 in 10.0 mi North 5.8 mph - N/A   Clear
1:53 PM 77.0 °F 39.0 °F 25% 30.14 in 10.0 mi NW 8.1 mph - N/A   Clear
2:53 PM 77.0 °F 41.0 °F 28% 30.13 in 10.0 mi Variable 5.8 mph - N/A   Clear
3:53 PM 78.1 °F 41.0 °F 27% 30.12 in 10.0 mi Variable 6.9 mph - N/A   Clear
4:53 PM 78.1 °F 39.9 °F 25% 30.11 in 10.0 mi Variable 4.6 mph - N/A   Clear
5:53 PM 77.0 °F 45.0 °F 32% 30.11 in 10.0 mi Calm Calm - N/A   Clear
6:53 PM 73.0 °F 46.0 °F 38% 30.12 in 10.0 mi ENE 6.9 mph - N/A   Clear
7:53 PM 69.1 °F 39.9 °F 35% 30.15 in 10.0 mi East 3.5 mph - N/A   Clear
8:53 PM 64.9 °F 43.0 °F 45% 30.17 in 10.0 mi Calm Calm - N/A   Clear
9:53 PM 62.1 °F 45.0 °F 53% 30.18 in 10.0 mi Calm Calm - N/A   Clear
10:53 PM 60.1 °F 46.9 °F 62% 30.19 in 10.0 mi Calm Calm - N/A   Clear
11:53 PM 59.0 °F 46.9 °F 64% 30.18 in 10.0 mi Calm Calm - N/A   Clear